Zurück zum Katalog

FENGYUN 1C DEB

LostPO
NORAD 31232·DEBRIS·🇨🇳 China

Gestartet May 10, 1999 von Taiyuan Satellite Launch Center

Loading…

Nächste Überflüge (nächste 24 Stunden)

TLE

VeraltetSource: Space-Track

Epoche: Jul 15, 2024, 14:32 UTC

1 31232U 99025BLN 24197.60578407  .00034028  00000-0  89963-2 0  9990
2 31232  99.0051 335.9304 0024722  50.6057 309.7319 14.48522295541301

Verfolge FENGYUN 1C DEB in Echtzeit mit AllMySat

Download on the App Store